カタログに戻る

STARLINK-30614

運用中通信VLEO
NORAD 58098·PAYLOAD·🇺🇸 United States

打ち上げ Oct 21, 2023 から Vandenberg Space Force Base

Loading…

次のパス (今後24時間)

TLE

最新Source: CelesTrak SupGP

元期: Sep 15, 2026, 02:53 UTC

1 58098C 23161B   26258.12062500  .00066228  00000+0  19570-2 0  2587
2 58098  53.1595   2.9470 0001323  92.6200 223.5155 15.34352320    12

AllMySatでSTARLINK-30614をリアルタイム追跡

Download on the App Store